Regional Weather Roundup
Issued by NWS

Home | Current Version | Previous Version | Text Only | Print | Product List | Glossary On
Versions: 1 2 3 4 5 6 7 8 9 10 11 12 13 14 15 16 17 18 19 20 21 22 23 24 25 26 27 28 29 30 31 32 33 34 35 36 37 38 39 40 41 42 43 44 45 46 47 48 49 50
000
ASUS44 KFWD 270903
RWRTX
NORTH TEXAS HOURLY WEATHER ROUNDUP
NATIONAL WEATHER SERVICE FORT WORTH TX
400 AM CDT WED AUG 27 2014

NOTE: "FAIR" INDICATES FEW OR NO CLOUDS BELOW 12,000 FEET WITH NO
SIGNIFICANT WEATHER AND/OR OBSTRUCTIONS TO VISIBILITY.

TXZ118-119-271000-
DALLAS/FORT WORTH METROPLEX

CITY           SKY/WX    TMP DP  RH WIND       PRES   REMARKS
DFW AIRPORT    PTCLDY    80  70  71 SE5       30.02S
DALLAS LOVE    PTCLDY    81  70  69 E7        30.02S
FTW MEACHAM    CLEAR     82  69  64 E7        30.02R
DAL-EXECUTIVE  CLEAR     77  69  76 E6        30.02S
FTW-ALLIANCE   CLEAR     77  68  73 CALM      30.02R
FTW-NAS-JRB    CLEAR     83  67  58 E5        30.06R
FTW-SPINKS     CLEAR     74  68  81 CALM      30.04S
ARLINGTON      CLEAR     78  69  73 E3        30.02S
GRAND PRAIRIE  CLEAR     79  68  68 CALM      30.04R
ADDISON        CLEAR     81  69  67 E5        30.05S
MESQUITE       CLEAR     74  69  84 CALM      30.03S
LANCASTER      CLEAR     73  65  78 CALM      30.03S
$$

TXZ091>094-102>105-117-120-121-131>134-271000-
NORTH CENTRAL TEXAS

CITY           SKY/WX    TMP DP  RH WIND       PRES   REMARKS
SHRMAN/DENISON CLEAR     76  69  80 E3        30.06S
GAINESVILLE    CLEAR     75  69  80 E6        30.07S
BOWIE          CLEAR     74  68  83 CALM      30.05S
BRIDGEPORT     CLEAR     74  64  71 CALM      30.05S
DECATUR        CLEAR     75  67  75 E3        30.05S
DENTON         CLEAR     77  69  76 CALM      30.03R
MCKINNEY       CLEAR     75  70  84 NE3       30.04R
ROCKWALL       CLEAR     76  71  85 CALM      30.02S
TERRELL        CLEAR     79  72  79 E3        30.03S
WAXAHACHIE     CLEAR     75  68  77 CALM      30.04S
CLEBURNE       CLEAR     77  72  83 SE5       30.04S
GRANBURY       CLEAR     80  67  65 CALM      30.03F
$$

TXZ083>090-098>101-113>116-127>130-139>142-154-155-271000-
WESTERN NORTH TEXAS

CITY           SKY/WX    TMP DP  RH WIND       PRES   REMARKS
WICHITA FALLS  CLEAR     74  66  76 SE6       30.04R
WF-KICKAPOO    CLEAR     76  65  68 CALM      30.05S
VERNON         CLEAR     79  64  59 SE6       30.05F
ABILENE        CLEAR     78  65  63 SE7       30.05F
BRECKENRIDGE   CLEAR     81  65  58 SE7       30.04S
GRAHAM         CLEAR     79  66  64 SE5       30.03S
MINERAL WELLS  CLEAR     76  67  73 SE5       30.02S
STEPHENVILLE   CLEAR     77  66  69 SE3       30.07S
COMANCHE       CLEAR     75  66  73 SE5       30.05S
BROWNWOOD      MOCLDY    75  66  73 E3        30.05S
COLEMAN        CLEAR     76  66  71 E5        30.05F
BRADY          CLEAR     75  66  73 SE5       30.05S
$$

TXZ143>147-156>162-174-175-271000-
CENTRAL TEXAS

CITY           SKY/WX    TMP DP  RH WIND       PRES   REMARKS
WACO           CLEAR     79  69  71 S6        30.01S
WACO-MCGREGOR  CLEAR     75  63  64 S3        30.02S
HILLSBORO      CLEAR     77  68  72 E5        30.02S
CORSICANA      CLEAR     78  71  79 SE5       30.02F
MEXIA          CLEAR     75  70  83 CALM      30.00F
HEARNE           N/A     74  70  86 CALM      29.99F
CAMERON        CLEAR     76  70  81 CALM      29.99S
TEMPLE         CLEAR     77  64  65 CALM      30.01S
KILLEEN        PTCLDY    79  70  73 SE7       30.02S
KILLEEN-SKYLRK CLEAR     77  66  69 CALM      30.01S
FORT HOOD      CLEAR     79  70  74 CALM      30.02S
GATESVILLE     CLEAR     75  68  78 CALM      30.04S
HAMILTON       CLEAR     77  66  68 SE6       30.05S
LAMPASAS       CLEAR     76  71  86 CALM      30.03R
$$

TXZ095>097-106>112-122>126-135>138-148>153-164>167-271000-
EAST TEXAS

CITY           SKY/WX    TMP DP  RH WIND       PRES   REMARKS
PARIS          CLEAR     73  64  73 E6        30.06R
SULPHUR SPRNGS CLEAR     74  72  93 CALM      30.06S
CLARKSVILLE    CLEAR     75  71  86 CALM      30.05S
MOUNT PLEASANT CLEAR     73  72  95 N3        30.05S
GILMER         CLEAR     73  73 100 CALM      30.05S
MINEOLA        CLEAR     73  72  94 CALM      30.04S
TYLER          CLEAR     75  71  87 CALM      30.02S
LONGVIEW       CLEAR     73  70  90 CALM      30.01F
MARSHALL       CLEAR     73  71  92 CALM      30.04S
ATHENS         CLEAR     72  70  94 CALM      30.01S
PALESTINE      CLEAR     76  71  84 CALM      30.02S
JACKSONVILLE   CLEAR     76  69  78 CALM      30.04F
HENDERSON      CLEAR     72  72  99 CALM      30.03F
NACOGDOCHES    CLEAR     68  66  94 CALM      30.01F
LUFKIN         CLEAR     75  70  84 CALM      30.00S
$$

SUPPLEMENTAL OBSERVATIONS (CENTRAL)

CITY           SKY/WX    TMP DP  RH WIND       PRES   REMARKS
$$

SUPPLEMENTAL OBSERVATIONS (WEST)

CITY           SKY/WX    TMP DP  RH WIND       PRES   REMARKS
$$

SUPPLEMENTAL OBSERVATIONS (EAST)

CITY           SKY/WX    TMP DP  RH WIND       PRES   REMARKS
$$

SUPPLEMENTAL OBSERVATIONS ARE A COLLECTION OF AUTOMATED INSTRUMENTS
THAT ARE MAINTAINED BY A VARIETY OF FEDERAL AND STATE AGENCIES.
CERTAIN ELEMENTS...SUCH AS HUMIDITY VALUES AND SUSTAINED WIND
SPEEDS...MAY BE APPROXIMATED.



USA.gov is the U.S. government's official web portal to all federal, state and local government web resources and services.